Flag for Germany Weather past 2 weeks in Crailsheim, Baden-Württemberg, Germany

Now
70 °F

Passing clouds.


Feels Like: 70 °F
Forecast: 62 / 89 °F
Wind: 6 mph from Northeast

Location: Niederstetten

Current Time: Aug 30, 2015 at 2:19:29 AM

Latest Report: Aug 30, 2015 at 1:20 AM


Visibility: N/A

Pressure: 30.15 "Hg

Humidity: 78%

Dew point: 63 °F

Location of CrailsheimLocation

Historic Weather in Crailsheim — Graph

°F

Crailsheim temperature yesterday

Maximum temperature yesterday: 86 °F (at 3:20 PM)
Minimum temperature yesterday: 63 °F (at 12:20 AM)
Average temperature yesterday: 73 °F

Past Weeks' High & Low Weather Summary

 TemperatureHumidityPressure
High86 °F (Aug 27, 4:20 PM)100% (Aug 15, 5:20 AM)30.30 "Hg (Aug 15, 5:20 AM)
Low50 °F (Aug 19, 2:20 AM)29% (Aug 27, 5:00 PM)29.74 "Hg (Aug 24, 8:20 AM)
Average63 °F73%30.02 "Hg
* Reported Aug 15 12:20 AM — Aug 30 12:20 AM, Crailsheim, Weather by CustomWeather, © 2015

Note: Actual official high and low records may vary slightly from our data, if they occured in-between our weather recording intervals... More about our weather records

Advertising

Crailsheim weather history for previous 24 hours

 ConditionsComfort  
Time TempWeatherWind HumidityBarometerVisibility
12:20 AM
Sun, Aug 30
70 °FPassing clouds.6 mph78%30.15 "HgN/A
11:20 PM
Sat, Aug 29
72 °FPassing clouds.5 mph73%30.15 "HgN/A
10:20 PM73 °FPassing clouds.5 mph69%30.15 "HgN/A
9:20 PM77 °FPassing clouds.5 mph61%30.15 "HgN/A
8:20 PM77 °FPartly sunny.3 mph57%30.15 "HgN/A
7:20 PM84 °FPartly sunny.1 mph43%30.15 "HgN/A
6:20 PM86 °FScattered clouds.2 mph40%30.15 "HgN/A
5:20 PM86 °FScattered clouds.3 mph40%30.15 "HgN/A
4:20 PM86 °FScattered clouds.6 mph43%30.18 "HgN/A
3:20 PM86 °FPassing clouds.3 mph43%30.18 "HgN/A
2:20 PM84 °FPassing clouds.8 mph45%30.21 "HgN/A
1:20 PM82 °FPassing clouds.7 mph51%30.21 "HgN/A
11:20 AM77 °FPassing clouds.6 mph65%30.24 "HgN/A
10:20 AM73 °FScattered clouds.5 mph69%30.24 "HgN/A
9:20 AM70 °FScattered clouds.8 mph78%30.24 "HgN/A
7:54 AM63 °FFog.5 mph100%30.24 "Hg1 mi
7:20 AM63 °FFog.6 mph94%30.21 "Hg1 mi
6:20 AM63 °FFog.5 mph94%30.21 "Hg0 mi
5:20 AM63 °FFog.5 mph94%30.21 "Hg0 mi
4:20 AM63 °FFog.3 mph94%30.21 "Hg1 mi
3:20 AM63 °FFog.2 mph100%30.21 "Hg1 mi
2:20 AM63 °FFog.3 mph100%30.21 "Hg1 mi
Weather by CustomWeather, © 2015

See weather overviewHow to use our weather pages